GW4013 Weather Reports


time (UTC)temp
C
wind
direction
speed
KPH
gust
KPH
rain 1hr
cm
rain 24hr
cm
rain mn
cm
humidity
%
barometer
mb
20260506205443 15 121 4.8 8.0 0.05 0.30 0.30 99 1005.8
20260506204443 15 121 4.8 8.0 0.00 0.30 0.30 99 1005.9
20260506203443 14 138 12.9 14.5 0.13 0.30 0.30 99 1006.0
20260506202444 15 142 3.2 9.7 0.23 0.28 0.28 99 1005.9
20260506201438 15 142 3.2 9.7 0.23 0.23 0.23 99 1006.2
20260506200436 15 212 6.4 9.7 0.00 0.20 0.20 99 1006.0
20260506195436 15 230 4.8 8.0 0.00 0.20 0.20 99 1006.3
20260506194436 15 172 4.8 9.7 0.13 0.20 0.20 98 1006.3
20260506193435 15 214 8.0 8.0 0.05 0.18 0.18 98 1006.3
20260506192435 15 194 4.8 6.4 0.00 0.18 0.18 98 1006.4
20260506191434 15 128 1.6 9.7 0.00 0.18 0.18 98 1006.6
20260506190433 15 141 16.1 17.7 0.00 0.18 0.18 98 1006.3
20260506185433 15 125 3.2 17.7 0.05 0.18 0.18 97 1006.6
20260506184432 15 206 9.7 9.7 0.00 0.15 0.15 97 1006.6
20260506183431 15 114 6.4 9.7 0.05 0.15 0.15 97 1007.0
20260506182426 15 206 6.4 6.4 0.18 0.15 0.15 97 1007.1
20260506181421 15 204 6.4 6.4 0.13 0.13 0.13 96 1007.1
20260506180420 15 113 4.8 6.4 0.13 0.10 0.10 96 1006.9
20260506175419 15 168 6.4 9.7 0.13 0.08 0.08 95 1006.8
20260506174419 15 140 9.7 27.4 0.05 0.05 0.05 94 1007.0
20260506173419 15 179 4.8 6.4 0.13 0.05 0.05 93 1007.3
20260506172419 15 117 6.4 9.7 0.05 0.03 0.03 91 1007.7
20260506171419 16 180 4.8 14.5 0.00 0.00 0.00 90 1007.9
20260506170419 16 158 8.0 11.3 0.05 0.00 0.00 89 1008.0
20260506165416 16 176 9.7 14.5 0.00 0.00 0.00 87 1008.1
20260506164414 17 152 4.8 4.8 0.00 0.00 0.00 84 1008.1
20260506163413 17 232 8.0 11.3 0.00 0.00 0.00 84 1007.9
20260506162412 17 202 6.4 9.7 0.00 0.00 0.00 85 1008.1
20260506161407 17 215 11.3 17.7 0.00 0.00 0.00 80 1008.0
20260506160407 18 178 8.0 9.7 0.00 0.00 0.00 78 1008.1
20260506155402 18 152 4.8 8.0 0.00 0.00 0.00 77 1008.4
20260506153519 18 126 9.7 16.1 0.00 0.00 0.00 77 1008.4
20260506152519 18 209 14.5 16.1 0.00 0.00 0.00 75 1008.2
20260506151514 19 148 6.4 9.7 0.00 0.00 0.00 75 1008.0
20260506150513 19 214 9.7 9.7 0.00 0.00 0.00 74 1008.3
20260506145513 19 211 11.3 16.1 0.00 0.00 0.00 74 1008.4
20260506144513 19 141 6.4 11.3 0.00 0.00 0.00 74 1008.1
20260506143508 19 180 8.0 9.7 0.00 0.00 0.00 74 1008.5
20260506142503 18 151 12.9 17.7 0.00 0.00 0.00 75 1008.6
20260506141459 19 166 8.0 12.9 0.00 0.00 0.00 75 1008.6
20260506140454 18 155 6.4 9.7 0.00 0.00 0.00 77 1008.5
20260506135454 18 212 6.4 9.7 0.00 0.00 0.00 79 1008.7
20260506134452 17 210 14.5 14.5 0.00 0.00 0.00 79 1008.5
20260506133451 17 185 8.0 12.9 0.00 0.00 0.00 80 1008.4
20260506132451 17 177 6.4 8.0 0.00 0.00 0.00 80 1008.6
20260506131450 17 154 11.3 14.5 0.00 0.00 0.00 82 1008.6
20260506130450 17 153 3.2 4.8 0.00 0.00 0.00 83 1008.5
20260506125446 16 159 4.8 9.7 0.00 0.00 0.00 84 1008.7
20260506124441 16 173 3.2 9.7 0.00 0.00 0.00 84 1009.0
20260506123437 16 102 4.8 9.7 0.00 0.00 0.00 85 1009.1
20260506122436 16 94 1.6 9.7 0.00 0.00 0.00 86 1009.2
20260506121431 15 192 6.4 16.1 0.00 0.00 0.00 87 1008.9
20260506120426 15 206 8.0 14.5 0.00 0.00 0.00 87 1009.1
20260506115421 15 193 4.8 14.5 0.00 0.00 0.00 88 1009.1
20260506114416 15 132 4.8 6.4 0.00 0.00 0.00 88 1009.1
20260506113412 15 152 3.2 6.4 0.00 0.00 0.00 89 1009.3
20260506112412 15 109 3.2 8.0 0.00 0.00 0.00 89 1009.2
20260506111407 14 222 3.2 9.7 0.00 0.00 0.00 90 1009.1
20260506110408 14 111 6.4 9.7 0.00 0.00 0.00 90 1009.3
20260506105406 14 116 3.2 14.5 0.00 0.00 0.00 91 1009.3
20260506104401 13 180 3.2 11.3 0.00 0.00 0.00 91 1009.1
20260506103356 13 179 6.4 6.4 0.00 0.00 0.00 91 1009.4
20260506102351 13 137 3.2 8.0 0.00 0.00 0.00 92 1009.2
20260506101350 13 154 3.2 4.8 0.00 0.00 0.00 92 1009.0
20260506100346 13 134 4.8 8.0 0.00 0.00 0.00 91 1009.1
20260506095341 13 127 8.0 12.9 0.00 0.00 0.00 92 1009.1
20260506094337 13 261 4.8 9.7 0.00 0.00 0.00 91 1008.9
20260506093337 13 184 4.8 9.7 0.00 0.00 0.00 91 1009.0
20260506092333 13 162 6.4 9.7 0.00 0.00 0.00 91 1009.0
20260506091327 13 175 6.4 6.4 0.00 0.00 0.00 90 1008.9
20260506090322 13 180 9.7 11.3 0.00 0.00 0.00 90 1009.0
20260506085320 13 114 8.0 11.3 0.00 0.00 0.00 90 1009.1
20260506084320 13 200 8.0 12.9 0.00 0.00 0.00 89 1009.0
20260506083320 13 187 6.4 9.7 0.00 0.00 0.00 89 1009.3
20260506082319 14 197 8.0 11.3 0.00 0.00 0.00 89 1009.1
20260506081320 14 228 17.7 24.1 0.00 0.00 0.00 88 1009.1
20260506080319 14 131 6.4 12.9 0.00 0.00 0.00 88 1009.0
20260506073309 14 151 3.2 6.4 0.00 0.00 0.00 87 1009.2
20260506072309 14 101 3.2 9.7 0.00 0.00 0.00 87 1009.0
20260506071305 15 121 6.4 12.9 0.00 0.00 0.00 86 1009.3
20260506070304 15 157 8.0 9.7 0.00 0.00 0.00 85 1009.2
20260506062248 15 198 6.4 14.5 0.00 0.00 0.00 84 1008.9
20260506061246 15 195 6.4 9.7 0.00 0.00 0.00 83 1008.8
20260506060242 15 226 9.7 14.5 0.00 0.00 0.00 83 1008.9
20260506051231 16 197 8.0 8.0 0.00 0.00 0.00 81 1009.3
20260506050226 16 157 4.8 8.0 0.00 0.00 0.00 80 1009.3
20260506044220 16 163 3.2 14.5 0.00 0.00 0.00 77 1009.3
20260506043215 16 185 4.8 6.4 0.00 0.00 0.00 76 1009.3
20260506042212 17 194 3.2 9.7 0.00 0.00 0.00 75 1009.5
20260506041207 17 195 3.2 11.3 0.00 0.00 0.00 74 1009.3
20260506040207 17 196 4.8 12.9 0.00 0.00 0.00 73 1009.2
20260506035206 17 204 6.4 8.0 0.00 0.00 0.00 72 1009.4
20260506034206 17 203 12.9 14.5 0.00 0.00 0.00 71 1009.2
20260506033206 17 136 3.2 6.4 0.00 0.00 0.00 71 1009.4
20260506032206 17 150 6.4 19.3 0.00 0.00 0.00 71 1009.4
20260506031205 17 158 6.4 14.5 0.00 0.00 0.00 70 1009.2
20260506030200 17 131 9.7 9.7 0.00 0.00 0.00 70 1009.4
20260506025159 17 203 14.5 16.1 0.00 0.00 0.00 69 1009.2
20260506024159 17 142 8.0 14.5 0.00 0.00 0.00 70 1009.1
20260506023159 17 135 4.8 11.3 0.00 0.00 0.00 69 1009.2
20260506022159 17 179 8.0 9.7 0.00 0.00 0.00 68 1009.2
20260506021159 17 124 3.2 14.5 0.00 0.00 0.00 68 1009.0
20260506020154 17 169 3.2 17.7 0.00 0.00 0.00 68 1009.3
20260506015149 17 224 4.8 4.8 0.00 0.00 0.00 69 1009.0
20260506014147 17 195 6.4 8.0 0.00 0.00 0.00 68 1009.1
20260506013142 17 201 11.3 14.5 0.00 0.00 0.00 67 1008.9
20260506012141 17 177 8.0 9.7 0.00 0.00 0.00 67 1008.8
20260506011141 17 202 9.7 16.1 0.00 0.00 0.00 66 1008.7
20260506010136 18 193 8.0 8.0 0.00 0.00 0.00 65 1008.5
20260506005136 18 128 9.7 14.5 0.00 0.00 0.00 65 1008.6
20260506004135 18 219 8.0 12.9 0.00 0.00 0.00 64 1008.5
20260506003133 18 162 6.4 14.5 0.00 0.00 0.00 64 1008.1
20260506002131 18 175 6.4 9.7 0.00 0.00 0.00 64 1007.7
20260506001130 18 119 9.7 11.3 0.00 0.00 0.00 63 1007.6
20260506000125 19 159 3.2 12.9 0.00 0.00 0.00 63 1007.7
20260505235120 19 165 8.0 27.4 0.00 0.00 0.00 62 1007.7
20260505234119 19 180 8.0 11.3 0.00 0.00 0.00 62 1007.3
20260505233114 20 200 9.7 14.5 0.00 0.00 0.00 62 1007.2
20260505232114 20 215 9.7 16.1 0.00 0.00 0.00 61 1007.4
20260505231110 20 182 9.7 22.5 0.00 0.00 0.00 60 1007.4
20260505230109 20 194 6.4 16.1 0.00 0.00 0.00 59 1007.0
20260505225108 21 121 9.7 9.7 0.00 0.00 0.00 59 1007.0
20260505224108 21 192 3.2 11.3 0.00 0.00 0.00 57 1006.8
20260505223106 21 198 9.7 20.9 0.00 0.00 0.00 57 1006.8
20260505222105 22 185 8.0 16.1 0.00 0.00 0.00 56 1007.0
20260505221104 22 237 9.7 17.7 0.00 0.00 0.00 55 1006.9
20260505220100 23 181 8.0 8.0 0.00 0.00 0.00 54 1007.2
20260505215055 23 165 9.7 11.3 0.00 0.00 0.00 54 1006.8
20260505214055 23 184 8.0 22.5 0.00 0.00 0.00 53 1006.7
20260505213055 23 180 6.4 9.7 0.00 0.00 0.00 53 1006.9
20260505212055 23 221 6.4 14.5 0.00 0.00 0.00 54 1006.8
20260505211055 23 215 9.7 22.5 0.00 0.00 0.00 53 1006.6
20260505210054 24 189 11.3 17.7 0.00 0.00 0.00 52 1006.8